Rockingham, NC

6:03 PM EDT on April 26, 2017 (GMT -0400)
Rockingham

Weather History for KRCZ - November, 2012

Change the Weather History Date:

Monday, November 19, 2012

  Actual Average (KHFF) Record (KHFF)
Temperature  
Mean Temperature 55 °F -  
Max Temperature 61 °F 63 °F 75 °F (2004)
Min Temperature 48 °F 39 °F 15 °F (2014)
Degree Days  
Heating Degree Days 10    
Growing Degree Days 5 (Base 50)    
Moisture  
Dew Point 46 °F    
Average Humidity 73    
Maximum Humidity 80    
Minimum Humidity 64    
Precipitation  
Precipitation 0.00 in - - ()
Sea Level Pressure  
Sea Level Pressure 30.23 in    
Wind  
Wind Speed 10 mph (North)    
Max Wind Speed 15 mph    
Max Gust Speed 23 mph    
Visibility 10 miles    
Events      
Averages and records for this station are not official NWS values.
T = Trace of Precipitation, MM = Missing Value Source: NWS Daily Summary

Daily Weather History Graph

Daily Weather History Graph

Search for Another Location

Airport or City:

Trip Planner

Search our weather history database for the weather conditions in past years. The results will help you decide how hot, cold, wet, or windy it might be!

Date:

Astronomy

Nov. 19, 2012 Rise Set
Actual Time 6:57 AM EST 5:11 PM EST
Civil Twilight 6:30 AM EST 5:38 PM EST
Nautical Twilight 5:59 AM EST 6:09 PM EST
Astronomical Twilight 5:29 AM EST 6:39 PM EST
Moon 12:04 PM EST (11/19) 11:30 PM EST (11/19)
Length of Visible Light 11h 07m
Length of Day
10h 13m
Waxing Crescent, 40% of the Moon is Illuminated
Nov 19
Waxing Crescent
Nov 20
First Quarter
Nov 28
Full
Dec 6
Last Quarter
Dec 13
New

Hourly Weather History & Observations

Time (EST) Temp. Dew Point Humidity Pressure Visibility Wind Dir Wind Speed Gust Speed Precip Events Conditions
12:15 AM 53.1 °F 45.5 °F 75% 30.29 in 10.0 mi NNE 11.5 mph 18.4 mph N/A   Overcast
12:35 AM 52.9 °F 45.3 °F 75% 30.29 in 10.0 mi North 8.1 mph 19.6 mph N/A   Overcast
12:55 AM 52.9 °F 45.5 °F 76% 30.28 in 10.0 mi NNE 9.2 mph 16.1 mph N/A   Overcast
1:15 AM 52.7 °F 45.1 °F 75% 30.28 in 10.0 mi NNE 15.0 mph 21.9 mph N/A   Overcast
1:35 AM 52.7 °F 45.0 °F 75% 30.28 in 10.0 mi NNE 13.8 mph 21.9 mph N/A   Overcast
1:55 AM 52.7 °F 45.1 °F 75% 30.28 in 10.0 mi North 12.7 mph 18.4 mph N/A   Overcast
2:15 AM 52.5 °F 45.1 °F 76% 30.28 in 10.0 mi North 11.5 mph 18.4 mph N/A   Overcast
2:35 AM 52.3 °F 45.0 °F 76% 30.28 in 10.0 mi North 9.2 mph - N/A   Overcast
2:55 AM 52.0 °F 44.8 °F 76% 30.27 in 10.0 mi North 11.5 mph 18.4 mph N/A   Overcast
3:15 AM 51.8 °F 44.8 °F 77% 30.26 in 10.0 mi North 9.2 mph 17.3 mph N/A   Overcast
3:35 AM 51.4 °F 45.0 °F 79% 30.26 in 10.0 mi NNE 12.7 mph 19.6 mph N/A   Overcast
3:55 AM 51.4 °F 44.6 °F 77% 30.25 in 10.0 mi North 9.2 mph 18.4 mph N/A   Overcast
4:15 AM 51.4 °F 44.2 °F 76% 30.25 in 10.0 mi North 12.7 mph 19.6 mph N/A   Overcast
4:35 AM 51.3 °F 44.4 °F 77% 30.26 in 10.0 mi NNE 11.5 mph 17.3 mph N/A   Overcast
4:55 AM 51.3 °F 44.6 °F 78% 30.26 in 10.0 mi North 11.5 mph - N/A   Overcast
5:15 AM 51.3 °F 44.6 °F 78% 30.26 in 10.0 mi North 10.4 mph - N/A   Overcast
5:35 AM 51.3 °F 44.6 °F 78% 30.26 in 10.0 mi NNE 9.2 mph - N/A   Overcast
5:55 AM 51.3 °F 44.6 °F 78% 30.26 in 10.0 mi North 12.7 mph - N/A   Overcast
6:15 AM 51.3 °F 44.6 °F 78% 30.27 in 10.0 mi North 9.2 mph 16.1 mph N/A   Overcast
6:35 AM 51.1 °F 44.4 °F 78% 30.27 in 10.0 mi North 9.2 mph 17.3 mph N/A   Overcast
6:55 AM 51.1 °F 44.4 °F 78% 30.26 in 10.0 mi North 10.4 mph 16.1 mph N/A   Overcast
7:15 AM 51.1 °F 44.4 °F 78% 30.27 in 10.0 mi North 10.4 mph 16.1 mph N/A   Overcast
7:35 AM 50.9 °F 44.1 °F 77% 30.28 in 10.0 mi North 11.5 mph 17.3 mph N/A   Overcast
7:55 AM 50.9 °F 43.9 °F 77% 30.28 in 10.0 mi North 13.8 mph 19.6 mph N/A   Overcast
8:35 AM 50.9 °F 44.4 °F 78% 30.28 in 10.0 mi North 8.1 mph 16.1 mph N/A   Overcast
8:55 AM 51.3 °F 44.8 °F 78% 30.28 in 10.0 mi North 10.4 mph 16.1 mph N/A   Overcast
9:15 AM 52.2 °F 45.1 °F 77% 30.28 in 10.0 mi North 8.1 mph - N/A   Overcast
9:35 AM 52.9 °F 45.5 °F 76% 30.28 in 10.0 mi NNE 9.2 mph 20.7 mph N/A   Overcast
9:55 AM 53.4 °F 45.7 °F 75% 30.28 in 10.0 mi North 8.1 mph - N/A   Overcast
10:15 AM 54.3 °F 46.2 °F 74% 30.28 in 10.0 mi NNE 9.2 mph 19.6 mph N/A   Overcast
10:35 AM 55.4 °F 46.8 °F 73% 30.28 in 10.0 mi NNE 10.4 mph 19.6 mph N/A   Overcast
10:55 AM 56.8 °F 47.1 °F 70% 30.27 in 10.0 mi North 10.4 mph - N/A   Mostly Cloudy
11:15 AM 57.9 °F 47.5 °F 68% 30.27 in 10.0 mi NNE 10.4 mph 16.1 mph N/A   Mostly Cloudy
11:35 AM 57.4 °F 47.7 °F 70% 30.26 in 10.0 mi North 10.4 mph 16.1 mph N/A   Overcast
11:55 AM 57.9 °F 48.2 °F 70% 30.25 in 10.0 mi North 10.4 mph 17.3 mph N/A   Overcast
12:15 PM 58.8 °F 48.6 °F 69% 30.24 in 10.0 mi North 12.7 mph 17.3 mph N/A   Overcast
12:35 PM 59.9 °F 48.7 °F 67% 30.23 in 10.0 mi North 11.5 mph - N/A   Overcast
12:55 PM 60.8 °F 48.9 °F 65% 30.22 in 10.0 mi NNE 11.5 mph 23.0 mph N/A   Overcast
1:15 PM 61.0 °F 48.9 °F 64% 30.22 in 10.0 mi North 10.4 mph 16.1 mph N/A   Overcast
1:35 PM 60.8 °F 49.1 °F 65% 30.21 in 10.0 mi NNE 12.7 mph 18.4 mph N/A   Overcast
1:55 PM 60.8 °F 49.1 °F 65% 30.20 in 10.0 mi NNE 9.2 mph - N/A   Overcast
2:15 PM 60.6 °F 49.1 °F 66% 30.19 in 10.0 mi NNE 12.7 mph 17.3 mph N/A   Overcast
2:35 PM 60.6 °F 49.1 °F 66% 30.19 in 10.0 mi NNE 11.5 mph 17.3 mph N/A   Overcast
2:55 PM 60.8 °F 49.1 °F 65% 30.19 in 10.0 mi NNE 9.2 mph - N/A   Overcast
3:15 PM 61.2 °F 49.5 °F 65% 30.19 in 10.0 mi NNE 8.1 mph 16.1 mph N/A   Overcast
3:35 PM 61.3 °F 49.3 °F 65% 30.18 in 10.0 mi North 9.2 mph - N/A   Overcast
3:55 PM 61.3 °F 49.1 °F 64% 30.19 in 10.0 mi North 11.5 mph 16.1 mph N/A   Overcast
4:15 PM 60.6 °F 48.7 °F 65% 30.18 in 10.0 mi North 9.2 mph - N/A   Overcast
4:35 PM 59.7 °F 48.4 °F 66% 30.19 in 10.0 mi North 6.9 mph - N/A   Scattered Clouds
4:55 PM 59.0 °F 48.0 °F 67% 30.19 in 10.0 mi North 6.9 mph - N/A   Clear
5:15 PM 58.1 °F 47.7 °F 68% 30.19 in 10.0 mi NNE 6.9 mph - N/A   Clear
5:35 PM 57.0 °F 47.5 °F 70% 30.20 in 10.0 mi North 3.5 mph - N/A   Scattered Clouds
5:55 PM 56.5 °F 47.1 °F 71% 30.20 in 10.0 mi North 4.6 mph - N/A   Scattered Clouds
6:15 PM 56.1 °F 46.8 °F 71% 30.21 in 10.0 mi North 3.5 mph - N/A   Mostly Cloudy
6:35 PM 55.4 °F 46.6 °F 72% 30.22 in 10.0 mi NNW 3.5 mph - N/A   Mostly Cloudy
6:55 PM 54.9 °F 46.4 °F 73% 30.22 in 10.0 mi North 5.8 mph - N/A   Scattered Clouds
7:15 PM 54.5 °F 46.0 °F 73% 30.22 in 10.0 mi North 4.6 mph - N/A   Clear
7:35 PM 53.8 °F 45.9 °F 75% 30.21 in 10.0 mi North 8.1 mph - N/A   Clear
7:55 PM 53.8 °F 45.1 °F 73% 30.21 in 10.0 mi North 4.6 mph - N/A   Clear
8:15 PM 53.2 °F 44.8 °F 73% 30.20 in 10.0 mi North 6.9 mph - N/A   Clear
8:35 PM 52.9 °F 44.4 °F 73% 30.20 in 10.0 mi North 6.9 mph - N/A   Clear
8:55 PM 52.3 °F 44.1 °F 73% 30.20 in 10.0 mi NNE 4.6 mph - N/A   Clear
9:15 PM 51.8 °F 43.9 °F 74% 30.19 in 10.0 mi North 4.6 mph - N/A   Clear
9:35 PM 51.4 °F 43.7 °F 75% 30.19 in 10.0 mi NNE 6.9 mph - N/A   Clear
10:15 PM 50.7 °F 43.3 °F 76% 30.18 in 10.0 mi North 4.6 mph - N/A   Clear
10:35 PM 50.4 °F 43.2 °F 76% 30.17 in 10.0 mi NNE 6.9 mph - N/A   Clear
10:55 PM 50.2 °F 43.2 °F 77% 30.17 in 10.0 mi NNE 6.9 mph - N/A   Clear
11:15 PM 49.8 °F 43.0 °F 77% 30.17 in 10.0 mi North 5.8 mph - N/A   Clear
11:35 PM 49.3 °F 43.0 °F 79% 30.16 in 10.0 mi North 5.8 mph - N/A   Clear
11:55 PM 48.7 °F 43.0 °F 80% 30.17 in 10.0 mi North 5.8 mph - N/A   Clear